K5MSM Weather Reports


time (UTC)temp
C
wind
direction
speed
KPH
gust
KPH
rain 1hr
cm
rain 24hr
cm
rain mn
cm
humidity
%
barometer
mb
20260510120027 17 143 0.0 1.6 0.00 0.00 0.00 89 1014.3
20260510114525 17 340 0.0 3.2 0.00 0.00 0.00 89 1014.0
20260510113023 17 21 0.0 1.6 0.00 0.00 0.00 89 1014.1
20260510111522 17 62 0.0 1.6 0.00 0.00 0.00 88 1014.5
20260510110032 17 354 0.0 1.6 0.00 0.00 0.00 88 1014.5
20260510104520 17 270 0.0 1.6 0.00 0.00 0.00 87 1014.2
20260510103020 17 91 0.0 8.0 0.00 0.00 0.00 87 1014.0
20260510101520 17 70 0.0 4.8 0.00 0.00 0.00 85 1014.1
20260510100019 17 297 0.0 3.2 0.00 0.00 0.00 84 1014.1
20260510094538 17 35 0.0 3.2 0.00 0.00 0.00 83 1013.9
20260510093018 17 287 1.6 9.7 0.00 0.00 0.00 84 1013.2
20260510091522 17 320 0.0 4.8 0.00 0.00 0.00 85 1012.7
20260510090018 16 155 1.6 6.4 0.00 0.00 0.00 87 1013.0
20260510084516 16 248 0.0 1.6 0.00 0.00 0.00 86 1013.5
20260510083015 16 278 0.0 8.0 0.00 0.00 0.00 85 1013.9
20260510081515 17 286 1.6 11.3 0.00 0.00 0.00 83 1013.8
20260510080008 18 245 0.0 1.6 0.00 0.00 0.00 82 1013.4
20260510074504 18 352 1.6 9.7 0.00 0.00 0.00 78 1011.3
20260510073002 19 36 1.6 6.4 0.00 0.00 0.00 73 1014.6
20260510071558 20 307 0.0 8.0 0.00 0.00 0.00 72 1015.1
20260510070055 20 248 4.8 11.3 0.00 0.00 0.00 73 1015.1
20260510064554 20 266 0.0 6.4 0.00 0.00 0.00 72 1015.1
20260510063052 20 269 1.6 3.2 0.00 0.00 0.00 72 1014.8
20260510061552 20 287 0.0 1.6 0.00 0.00 0.00 70 1014.3
20260510060047 20 227 0.0 1.6 0.00 0.00 0.00 71 1013.7
20260510054545 20 179 0.0 3.2 0.00 0.00 0.00 72 1013.3
20260510053057 20 156 0.0 0.0 0.00 0.00 0.00 70 1013.0
20260510051547 20 106 0.0 0.0 0.00 0.00 0.00 70 1013.5
20260510050038 20 106 0.0 0.0 0.00 0.00 0.00 71 1013.5
20260510044537 20 60 0.0 0.0 0.00 0.00 0.00 71 1013.5
20260510043042 21 60 0.0 0.0 0.00 0.00 0.00 71 1013.5
20260510041534 21 60 0.0 0.0 0.00 0.00 0.00 69 1013.2
20260510040040 21 60 0.0 0.0 0.00 0.00 0.00 68 1012.8
20260510034533 20 60 0.0 0.0 0.00 0.00 0.00 67 1012.6
20260510033033 20 60 0.0 0.0 0.00 0.00 0.00 66 1012.3
20260510031532 20 60 0.0 0.0 0.00 0.00 0.00 65 1012.2
20260510030033 20 60 0.0 0.0 0.00 0.00 0.00 66 1011.9
20260510024531 19 60 0.0 0.0 0.00 0.00 0.00 67 1011.2
20260510023031 19 60 0.0 1.6 0.00 0.00 0.00 68 1010.7
20260510021540 20 60 0.0 0.0 0.00 0.00 0.00 65 1010.5
20260510020030 20 60 0.0 0.0 0.00 0.00 0.00 63 1010.5
20260510014532 20 60 0.0 0.0 0.00 0.00 0.00 59 1010.3
20260510013028 21 60 0.0 0.0 0.00 0.00 0.00 56 1010.3
20260510011539 22 60 0.0 0.0 0.00 0.00 0.00 51 1010.3
20260510010027 23 60 0.0 1.6 0.00 0.00 0.00 51 1010.2
20260510004531 24 60 0.0 1.6 0.00 0.00 0.00 53 1010.0
20260510003026 25 71 0.0 1.6 0.00 0.00 0.00 52 1009.8
20260510001525 25 73 0.0 1.6 0.00 0.00 0.00 48 1009.9
20260510000033 26 108 0.0 1.6 0.00 0.00 0.00 45 1010.0
20260509234521 26 71 0.0 3.2 0.00 0.00 0.00 39 1010.1
20260509233021 27 85 0.0 3.2 0.00 0.00 0.00 39 1010.2
20260509231520 28 110 0.0 6.4 0.00 0.00 0.00 40 1010.2
20260509230019 28 46 1.6 4.8 0.00 0.00 0.00 40 1010.3
20260509224519 28 48 1.6 4.8 0.00 0.00 0.00 41 1010.3
20260509223018 30 66 0.0 4.8 0.00 0.00 0.00 38 1010.3
20260509221521 30 65 0.0 6.4 0.00 0.00 0.00 39 1010.4
20260509220020 30 119 1.6 4.8 0.00 0.00 0.00 37 1010.4
20260509214514 30 105 0.0 6.4 0.00 0.00 0.00 39 1010.4
20260509213025 30 57 0.0 4.8 0.00 0.00 0.00 37 1010.6
20260509211512 30 25 1.6 11.3 0.00 0.00 0.00 35 1010.7
20260509210011 30 60 0.0 3.2 0.00 0.00 0.00 36 1010.9
20260509204508 30 87 0.0 6.4 0.00 0.00 0.00 35 1011.0
20260509203010 30 75 1.6 4.8 0.00 0.00 0.00 35 1011.2
20260509201504 30 136 0.0 4.8 0.00 0.00 0.00 40 1011.4
20260509200003 30 22 0.0 4.8 0.00 0.00 0.00 39 1011.6
20260509194502 30 116 1.6 6.4 0.00 0.00 0.00 43 1011.7
20260509193106 30 53 0.0 4.8 0.00 0.00 0.00 47 1011.8
20260509191607 28 110 1.6 8.0 0.00 0.00 0.00 49 1011.8
20260509190057 28 112 1.6 4.8 0.00 0.00 0.00 47 1012.0
20260509184600 29 51 1.6 4.8 0.00 0.00 0.00 42 1012.1
20260509183058 28 116 1.6 6.4 0.00 0.00 0.00 41 1012.2
20260509181549 28 85 1.6 6.4 0.00 0.00 0.00 53 1012.3
20260509180048 28 68 1.6 4.8 0.00 0.00 0.00 57 1012.3
20260509174600 28 131 0.0 3.2 0.00 0.00 0.00 58 1012.5
20260509173049 27 54 1.6 4.8 0.00 0.00 0.00 61 1012.6
20260509171540 27 135 0.0 4.8 0.00 0.00 0.00 64 1012.7
20260509170039 26 51 0.0 6.4 0.00 0.00 0.00 65 1012.9
20260509164536 26 130 0.0 4.8 0.00 0.00 0.00 68 1012.9
20260509163040 26 69 1.6 8.0 0.00 0.00 0.00 68 1013.0
20260509161533 26 153 1.6 3.2 0.00 0.00 0.00 69 1013.0
20260509160031 25 123 0.0 3.2 0.00 0.00 0.00 71 1013.0
20260509154528 25 148 0.0 3.2 0.00 0.00 0.00 72 1013.0
20260509153034 24 67 0.0 4.8 0.00 0.00 0.00 74 1013.0
20260509151523 23 133 0.0 3.2 0.00 0.00 0.00 73 1013.0
20260509150021 23 248 0.0 3.2 0.00 0.00 0.00 74 1013.1
20260509144519 22 224 0.0 3.2 0.00 0.00 0.00 78 1013.2
20260509143012 21 160 0.0 0.0 0.00 0.00 0.00 83 1013.2
20260509141507 20 175 0.0 0.0 0.00 0.00 0.00 87 1013.3
20260509140003 18 159 0.0 0.0 0.00 0.00 0.00 93 1013.3
20260509134600 17 166 0.0 0.0 0.00 0.00 0.00 95 1013.3
20260509133056 17 160 0.0 0.0 0.00 0.00 0.00 95 1012.9
20260509131555 16 166 0.0 0.0 0.00 0.00 0.00 95 1012.7
20260509130105 16 183 0.0 0.0 0.00 0.00 0.00 95 1012.4
20260509124555 15 183 0.0 0.0 0.00 0.00 0.00 95 1012.3
20260509123053 14 183 0.0 0.0 0.00 0.00 0.00 95 1012.3
20260509121601 13 183 0.0 0.0 0.00 0.00 0.00 94 1012.1